User: anonymous   Login
Location: Bismarck
(46.7731°N, 100.8200°W)
Time: 21:37:15
(UTC-05:00)
Language:

Landsat 7 - Orbit

View from above orbital plane
View from above orbital plane
View from above satellite
View from above satellite

Ground track
Ground track

The orbit data is extracted from the following two-line orbital elements,

1 25682U 99020A   14304.26006485 -.00002997  00000-0 -65586-3 0  7558
2 25682 098.2240 012.1036 0001365 060.8181 299.3201 14.57087094826807
Epoch (UTC): 31 October 2014 06:14:29
Eccentricity: 0.0001365
inclination: 98.2240°
perigee height: 701 km
apogee height: 703 km
right ascension of ascending node: 12.1036°
argument of perigee: 60.8181°
revolutions per day: 14.57087094
mean anomaly at epoch: 299.3201°
orbit number at epoch: 82680

The dashed part of the orbit path shows where the satellite is in the earth's shadow,  

DLR